Temp
12 12 12 12 12 12 12 12 12 12 12 12 12 12 12 12 12 12 12 12 12 12 12 11 11 11 11 12 11 11 10 10 11 11 10 10 10 9 10 10 10 10 10 10 10
12 12 12 12 12 13 13 13 13 13 13 13 12 13 12 12 12 12 12 12 12 12 12 11 11 11 11 11 11 11 11 11 12 11 10 9 9 9 10 10 11 11 10 10 10
12 12 12 12 13 13 13 13 13 13 13 13 13 12 13 13 12 12 12 12 12 12 12 12 11 12 11 11 11 11 10 11 11 11 10 10 9 10 9 11 10 11 10 10 10
12 12 12 12 13 13 13 13 13 13 12 12 13 13 12 12 12 12 12 12 12 12 12 12 12 12 11 11 11 10 10 10 11 10 10 9 9 9 9 10 9 9 10 10 10
12 12 12 12 13 13 13 13 13 13 13 13 13 13 12 12 12 12 11 12 12 12 12 12 11 12 11 11 11 11 12 12 11 11 10 9 9 9 10 9 9 10 9 9 9
12 12 13 13 13 13 13 13 13 13 13 13 13 13 12 12 12 12 12 12 12 12 12 12 11 12 12 11 11 12 12 12 10 10 10 10 9 8 9 10 9 9 9 9 9
12 12 13 13 13 13 13 13 13 13 13 13 13 13 12 12 12 12 12 12 12 12 12 11 12 11 12 11 12 12 11 11 10 9 9 9 9 8 8 9 9 9 9 9 9
12 12 13 13 13 13 13 13 13 13 13 13 13 12 12 13 12 11 12 12 12 12 12 11 12 12 11 11 11 11 11 12 11 10 10 9 9 9 8 8 9 9 8 9 9
13 13 13 13 13 13 13 13 13 13 13 13 13 12 12 12 11 12 12 12 12 12 12 11 12 12 12 11 12 12 12 12 11 10 10 9 9 9 9 8 8 9 8 8 8
12 12 13 13 13 13 13 13 13 13 13 13 13 12 12 11 12 12 11 12 11 11 11 11 12 12 12 12 12 13 12 12 11 11 10 10 10 10 10 10 10 9 9 8 8
13 13 13 13 13 12 12 12 12 12 13 13 13 13 11 12 11 11 12 12 11 11 11 11 11 12 12 12 12 12 12 12 12 11 10 10 9 9 10 10 10 10 9 9 9
13 13 13 13 12 12 12 12 13 14 15 13 13 13 12 12 11 11 11 11 11 11 11 11 11 12 12 13 12 12 12 12 12 12 11 12 11 10 10 10 10 10 10 9 9
13 13 13 13 12 12 12 12 12 13 13 15 15 15 12 12 12 12 12 12 12 11 11 12 12 12 12 13 13 13 13 12 13 13 12 12 12 12 10 10 10 10 9 10 10
13 13 13 13 12 12 12 12 12 12 12 15 15 15 14 12 13 12 12 12 12 12 11 11 13 13 13 13 13 13 14 13 12 13 11 11 11 13 12 11 12 10 10 10 10
13 13 13 12 12 11 11 11 11 12 9 14 14 15 13 13 13 13 12 12 13 13 12 13 13 13 13 14 14 14 14 14 13 13 12 11 10 13 13 13 13 13 11 10 10
12 12 12 13 12 12 11 11 11 11 11 14 14 15 14 13 13 13 12 12 12 12 12 13 13 13 13 14 14 14 14 14 12 12 11 13 11 14 14 14 13 13 12 11 9
12 12 12 12 12 11 10 10 10 10 13 13 13 13 14 14 13 13 12 12 12 12 12 13 13 13 13 14 14 14 14 13 11 9 9 14 11 15 15 14 14 14 13 12 11
12 12 12 12 12 11 10 9 10 11 12 13 13 13 14 14 13 13 12 12 12 13 13 13 14 15 14 14 15 14 15 14 10 9 11 12 12 15 15 14 14 14 13 12 12
11 12 12 12 11 10 10 9 11 11 11 12 13 14 13 13 13 13 13 13 13 13 13 14 14 15 15 15 15 15 14 14 14 11 11 14 15 15 16 15 15 14 14 14 13
11 11 11 10 10 10 9 10 10 11 11 11 11 12 12 13 13 13 13 13 13 13 13 14 14 15 15 15 15 14 15 14 14 9 10 12 12 15 16 15 15 14 14 13 12
10 10 10 9 9 9 9 9 10 10 9 9 10 11 12 12 13 13 13 14 14 14 14 13 13 15 15 15 15 15 14 15 14 14 9 8 13 16 16 15 14 14 14 14 13
10 9 9 9 9 8 8 8 8 10 9 10 10 11 11 11 12 12 13 13 13 13 14 15 13 14 15 16 15 15 15 15 14 14 13 12 14 16 15 14 14 14 14 14 14
9 9 8 8 7 7 7 8 7 9 9 9 9 10 11 11 11 12 12 13 13 13 13 14 13 13 14 15 15 15 15 15 15 15 14 12 14 15 16 15 14 13 13 13 13
8 8 7 7 6 6 7 8 8 8 8 8 9 10 10 11 11 11 11 12 12 13 13 13 14 14 14 15 15 15 15 15 15 15 14 14 15 15 15 15 14 13 13 13 13
8 8 7 5 5 6 6 6 7 8 8 8 9 9 9 9 10 10 10 11 12 12 13 13 14 14 14 15 15 15 15 15 14 14 14 14 14 15 15 15 15 14 13 13 13
7 7 6 6 6 5 5 5 6 6 7 7 7 8 8 8 8 8 10 10 11 12 12 12 13 14 14 15 15 15 15 14 14 14 14 14 14 14 14 14 14 14 13 13 13
6 6 6 6 6 5 5 6 6 5 6 7 7 7 7 7 7 8 8 9 9 9 11 11 12 13 13 14 14 13 14 14 14 14 14 14 14 14 15 14 15 14 14 13 13
Height
3147 3147 3146 3145 3145 3145 3145 3145 3145 3146 3146 3148 3149 3151 3153 3155 3158 3161 3163 3165 3167 3168 3169 3168 3167 3167 3167 3166 3165 3165 3165 3163 3164 3166 3166 3165 3165 3167 3169 3170 3170 3170 3170 3169 3169
3148 3147 3147 3146 3145 3145 3144 3144 3145 3145 3145 3146 3148 3149 3151 3153 3156 3160 3162 3164 3166 3168 3169 3169 3168 3168 3169 3167 3166 3166 3166 3166 3164 3164 3165 3165 3165 3166 3167 3169 3171 3172 3171 3170 3170
3149 3148 3147 3146 3145 3145 3144 3144 3144 3144 3145 3145 3146 3148 3150 3152 3155 3157 3160 3162 3165 3167 3168 3169 3170 3170 3170 3167 3165 3165 3166 3166 3165 3164 3165 3165 3163 3166 3165 3169 3171 3173 3172 3171 3171
3149 3148 3147 3146 3146 3145 3144 3144 3144 3144 3144 3144 3145 3146 3148 3151 3155 3155 3158 3161 3164 3166 3168 3170 3171 3171 3170 3166 3164 3165 3166 3165 3164 3163 3164 3162 3166 3166 3167 3170 3172 3174 3173 3172 3172
3150 3149 3148 3146 3145 3145 3144 3144 3144 3143 3144 3144 3145 3146 3148 3150 3152 3153 3156 3159 3163 3165 3167 3170 3170 3170 3169 3167 3166 3166 3165 3164 3163 3162 3161 3162 3164 3165 3167 3167 3171 3173 3172 3173 3173
3150 3149 3148 3147 3146 3145 3144 3144 3144 3143 3144 3144 3145 3146 3147 3150 3151 3153 3154 3157 3162 3164 3167 3169 3169 3170 3169 3168 3167 3166 3166 3165 3162 3163 3162 3162 3164 3165 3166 3166 3170 3172 3173 3174 3175
3150 3148 3147 3147 3146 3145 3144 3144 3144 3143 3143 3144 3144 3145 3147 3150 3150 3151 3152 3154 3159 3163 3166 3167 3168 3169 3169 3169 3169 3168 3167 3165 3164 3164 3164 3164 3166 3164 3165 3165 3169 3171 3173 3174 3175
3149 3148 3147 3146 3146 3145 3144 3144 3143 3143 3143 3143 3144 3145 3146 3147 3150 3150 3150 3152 3156 3161 3164 3165 3166 3168 3168 3169 3169 3167 3166 3164 3164 3165 3164 3165 3164 3165 3165 3166 3169 3169 3172 3174 3175
3148 3147 3146 3145 3145 3144 3144 3143 3142 3142 3141 3142 3143 3144 3145 3147 3148 3149 3148 3150 3154 3159 3162 3163 3165 3167 3168 3168 3169 3167 3164 3163 3164 3163 3164 3163 3161 3162 3163 3166 3166 3168 3170 3171 3172
3146 3145 3144 3144 3143 3143 3142 3142 3141 3140 3140 3140 3141 3144 3145 3146 3146 3147 3146 3148 3152 3156 3159 3161 3163 3165 3166 3166 3165 3165 3164 3164 3162 3162 3161 3160 3159 3159 3159 3160 3164 3168 3169 3170 3172
3144 3143 3142 3141 3141 3141 3141 3140 3141 3139 3136 3138 3139 3141 3141 3143 3144 3145 3145 3147 3149 3152 3155 3158 3160 3160 3163 3164 3165 3165 3163 3163 3161 3160 3160 3159 3159 3160 3160 3160 3162 3164 3166 3167 3170
3141 3140 3139 3138 3138 3138 3138 3137 3134 3136 3135 3136 3136 3137 3138 3139 3142 3142 3143 3146 3147 3149 3152 3155 3153 3158 3161 3162 3163 3163 3161 3161 3161 3159 3160 3159 3157 3156 3156 3157 3160 3161 3163 3164 3167
3139 3137 3136 3134 3135 3135 3135 3134 3133 3134 3133 3132 3131 3132 3135 3138 3139 3140 3143 3145 3146 3147 3149 3151 3153 3155 3159 3160 3161 3160 3158 3160 3160 3158 3157 3157 3155 3154 3152 3153 3155 3156 3159 3162 3164
3135 3134 3133 3131 3133 3131 3131 3133 3133 3135 3133 3131 3129 3130 3132 3135 3137 3139 3142 3146 3145 3147 3148 3149 3151 3154 3156 3157 3159 3156 3155 3156 3158 3157 3156 3156 3154 3150 3150 3149 3149 3151 3153 3154 3158
3131 3131 3129 3129 3128 3128 3131 3131 3133 3134 3134 3132 3130 3130 3131 3136 3136 3137 3140 3143 3145 3146 3147 3147 3147 3150 3152 3152 3154 3153 3152 3153 3153 3155 3155 3154 3155 3147 3146 3144 3144 3147 3146 3151 3155
3128 3127 3125 3125 3125 3126 3128 3131 3133 3135 3130 3130 3130 3130 3131 3133 3135 3136 3138 3142 3143 3144 3144 3144 3145 3146 3147 3148 3149 3151 3151 3151 3153 3154 3155 3150 3150 3142 3141 3139 3141 3143 3144 3146 3151
3125 3124 3122 3121 3122 3123 3126 3130 3133 3131 3130 3131 3130 3130 3131 3133 3134 3135 3137 3138 3139 3141 3140 3142 3141 3142 3145 3145 3146 3146 3149 3150 3154 3155 3152 3146 3146 3139 3138 3137 3137 3137 3140 3143 3147
3123 3122 3120 3119 3120 3122 3124 3129 3129 3126 3127 3127 3127 3128 3129 3132 3133 3134 3135 3135 3136 3138 3138 3138 3137 3138 3139 3141 3142 3143 3144 3146 3152 3150 3147 3146 3142 3137 3136 3135 3134 3134 3135 3139 3143
3121 3119 3118 3118 3118 3120 3123 3125 3124 3126 3126 3126 3126 3126 3126 3129 3131 3132 3132 3131 3132 3133 3137 3135 3135 3136 3137 3139 3140 3140 3140 3142 3143 3144 3145 3143 3139 3134 3134 3133 3133 3134 3133 3134 3139
3119 3118 3117 3117 3117 3119 3122 3122 3123 3124 3125 3125 3125 3125 3124 3125 3127 3126 3128 3126 3128 3131 3134 3134 3134 3132 3134 3133 3131 3135 3138 3140 3140 3145 3147 3140 3138 3133 3132 3133 3133 3134 3133 3134 3137
3118 3116 3117 3116 3118 3119 3119 3120 3121 3123 3122 3121 3121 3121 3122 3121 3123 3123 3123 3125 3124 3126 3127 3130 3131 3128 3130 3131 3131 3133 3133 3134 3136 3137 3137 3141 3134 3131 3129 3131 3132 3135 3135 3135 3137
3115 3116 3115 3115 3118 3116 3116 3117 3117 3118 3119 3118 3117 3119 3119 3120 3120 3120 3120 3122 3121 3121 3120 3121 3122 3122 3124 3126 3127 3128 3128 3129 3130 3132 3132 3133 3131 3129 3128 3129 3133 3135 3136 3137 3138
3112 3112 3113 3113 3113 3113 3113 3114 3114 3115 3115 3115 3114 3115 3115 3115 3117 3114 3115 3117 3116 3116 3116 3116 3116 3119 3119 3122 3122 3123 3124 3124 3126 3127 3127 3129 3129 3128 3127 3127 3128 3133 3135 3137 3138
3111 3110 3110 3110 3109 3109 3109 3111 3110 3111 3111 3110 3111 3110 3109 3109 3110 3109 3108 3111 3111 3111 3112 3112 3110 3112 3112 3113 3117 3117 3118 3118 3120 3121 3122 3123 3124 3124 3126 3126 3126 3130 3132 3135 3137
3108 3108 3106 3107 3106 3106 3106 3107 3105 3105 3108 3106 3106 3104 3105 3104 3103 3101 3102 3104 3106 3107 3108 3108 3106 3106 3108 3110 3111 3112 3113 3114 3116 3117 3118 3120 3120 3123 3124 3126 3127 3129 3130 3131 3132
3105 3104 3104 3103 3103 3102 3102 3101 3101 3101 3103 3101 3101 3100 3100 3099 3097 3097 3096 3097 3099 3101 3102 3102 3102 3100 3101 3105 3107 3108 3109 3111 3112 3113 3114 3116 3117 3119 3121 3123 3124 3126 3128 3128 3129
3100 3101 3100 3098 3097 3098 3096 3095 3095 3093 3099 3098 3093 3093 3094 3093 3092 3092 3092 3093 3094 3095 3097 3099 3099 3098 3096 3098 3101 3103 3104 3106 3107 3109 3110 3110 3112 3113 3116 3119 3121 3122 3125 3126 3129
Wind_Speed
7 6 5 3 2 1 1 2 4 6 8 10 11 14 16 15 12 10 8 9 8 10 10 8 5 2 6 11 15 14 10 9 8 6 12 8 7 15 13 4 1 1 3 9 13
7 6 4 3 2 1 1 1 2 3 5 7 9 11 13 15 15 12 11 9 10 11 11 12 6 3 7 14 15 11 8 4 7 5 21 12 16 21 13 11 0 5 6 7 12
8 7 5 4 2 2 2 1 1 2 2 3 6 8 9 10 12 15 13 12 12 13 13 12 4 3 9 19 14 7 5 2 9 2 19 17 15 15 13 12 4 8 6 6 9
8 8 7 5 4 3 2 2 1 1 1 2 3 6 8 8 8 16 16 12 12 13 13 10 4 3 13 11 5 2 1 4 8 1 14 21 15 14 9 6 8 2 10 4 9
8 7 8 7 6 4 3 2 1 1 1 1 2 5 8 11 8 13 19 16 15 15 13 10 5 3 11 4 4 5 2 6 7 5 4 7 18 12 12 13 10 5 4 7 13
7 7 6 6 6 5 4 3 2 1 1 1 2 3 8 13 10 7 16 19 18 16 14 11 5 4 7 4 4 4 3 1 3 4 3 7 14 13 15 16 14 5 8 12 11
7 6 6 5 4 4 4 2 2 2 2 2 1 2 6 10 9 5 12 15 20 17 15 12 7 5 4 1 4 2 5 6 4 2 6 10 13 13 19 14 14 8 11 10 9
7 7 6 5 5 4 4 3 2 3 2 2 2 3 7 7 3 4 6 10 22 22 19 15 11 5 3 3 2 6 10 11 8 7 5 13 13 19 16 12 13 10 11 11 8
9 8 8 6 6 6 5 5 5 5 4 3 1 4 6 3 3 1 9 13 21 22 19 20 15 12 7 9 10 10 11 13 10 13 6 11 11 10 22 16 18 15 19 17 11
12 11 10 9 8 7 7 7 8 8 9 7 5 5 5 6 6 8 8 15 19 22 20 21 20 15 13 15 13 8 13 19 17 9 10 8 10 11 13 16 11 21 21 23 22
14 13 13 11 10 9 8 8 11 11 10 10 7 8 10 8 4 5 3 15 20 24 22 20 21 24 19 18 16 17 22 22 9 4 4 6 16 12 14 23 16 25 24 27 24
15 14 14 13 10 10 10 10 18 16 14 10 11 11 14 12 10 4 3 12 18 22 22 22 28 18 16 19 17 16 15 11 5 9 5 9 9 16 19 20 13 17 24 30 26
15 14 14 15 11 10 13 15 17 16 21 13 9 12 15 10 5 8 3 6 7 14 17 19 3 12 13 13 13 15 18 15 10 7 11 7 14 15 23 25 23 28 27 29 27
15 14 14 15 12 11 14 13 14 12 13 5 2 5 14 13 8 10 6 3 7 8 10 10 13 8 8 13 13 21 14 19 21 15 7 16 7 9 24 22 19 27 28 24 35
15 13 14 13 13 12 11 8 6 6 3 2 2 8 13 6 7 10 11 10 5 6 12 10 11 7 12 11 13 12 6 12 15 18 11 13 9 6 12 24 21 21 24 29 34
15 11 12 11 13 13 10 7 5 3 5 3 3 5 12 14 12 12 12 14 11 9 14 14 13 15 11 11 11 11 11 9 14 18 6 21 17 14 13 11 12 18 27 25 35
15 12 10 10 11 10 11 10 6 6 1 3 5 9 10 14 16 13 12 19 18 12 15 19 20 19 17 18 17 13 17 5 2 4 6 11 10 17 12 12 15 14 16 24 30
13 11 9 9 6 9 13 16 8 3 2 0 1 10 14 11 16 15 19 21 23 19 13 6 4 15 21 22 18 15 19 12 6 3 4 9 7 14 21 11 10 12 11 22 28
10 9 7 6 5 8 13 18 5 6 4 4 4 10 19 18 16 18 21 24 22 18 15 5 6 2 11 13 21 22 15 14 12 2 1 7 17 24 21 11 7 6 9 18 23
6 5 1 2 3 7 13 18 14 8 6 10 8 2 1 13 9 18 21 14 26 28 23 19 16 7 6 11 7 24 20 9 7 4 4 7 10 18 19 14 14 8 0 8 21
3 4 5 1 2 5 12 13 13 10 7 7 8 11 9 8 7 12 10 14 10 15 23 32 29 28 18 11 8 18 24 14 14 8 8 3 10 16 14 13 14 13 5 3 7
5 7 9 4 3 1 2 4 8 9 6 6 14 12 10 12 16 10 11 13 9 10 12 15 30 37 31 18 16 13 21 27 17 10 8 4 7 5 6 8 13 17 9 8 10
7 9 11 9 8 7 9 8 9 11 8 6 5 10 16 16 17 14 13 13 15 12 4 4 15 30 31 25 18 18 17 27 25 18 12 5 6 11 14 8 16 20 17 14 10
6 9 13 14 17 17 18 13 14 12 12 13 12 11 12 10 13 11 16 16 14 16 13 13 13 17 27 26 21 17 17 17 22 16 11 8 7 9 6 9 18 21 22 20 17
5 10 16 12 22 24 24 20 20 20 14 15 14 14 13 14 14 16 18 23 23 21 15 10 16 17 18 16 21 17 13 16 14 8 9 8 8 11 10 3 9 20 25 27 22
9 10 14 18 20 22 25 24 26 27 23 21 17 15 12 12 12 11 17 16 16 21 17 14 10 12 21 21 18 16 15 10 11 11 8 11 14 11 12 12 13 21 23 30 23
12 12 14 17 19 21 25 28 27 28 27 27 25 22 17 17 17 17 13 14 14 11 14 11 11 10 7 23 19 17 21 18 15 16 13 14 13 12 14 22 18 22 19 25 22
Wind_Direction
57 60 64 69 88 117 172 194 214 222 224 222 218 218 215 213 206 196 180 182 160 154 146 139 141 108 5 359 343 349 356 38 87 171 214 180 188 173 184 168 181 346 34 147 133
51 52 52 57 59 76 107 174 193 211 217 219 216 215 216 215 206 193 197 181 167 161 162 161 189 4 343 327 315 322 328 331 27 271 181 166 178 178 185 177 138 3 160 157 129
50 46 42 46 54 60 82 114 148 181 194 202 208 207 204 209 202 197 197 181 173 168 179 181 186 315 349 336 318 314 306 357 1 225 199 195 172 179 178 179 138 42 26 162 141
41 40 39 40 53 57 59 84 110 132 137 160 183 191 186 181 182 196 198 188 179 174 183 186 206 30 353 330 35 198 324 347 1 201 205 219 208 179 216 200 145 19 18 147 119
32 30 32 36 37 43 48 61 67 46 62 98 145 170 170 168 170 186 199 194 183 177 182 189 148 77 37 69 82 228 273 303 28 55 161 204 196 207 252 196 181 129 50 149 130
19 20 19 24 27 26 33 44 54 32 35 46 114 158 165 177 166 177 203 203 189 180 185 177 149 97 52 330 264 349 108 338 40 46 190 202 198 223 210 200 186 124 129 153 129
359 359 358 359 1 8 12 27 32 3 17 16 69 146 166 175 166 209 214 210 192 181 189 189 188 116 80 32 70 34 288 295 271 233 192 191 200 197 200 184 193 150 160 173 146
339 339 334 331 332 322 328 328 321 325 350 18 59 134 170 172 174 185 198 187 186 182 189 195 202 172 96 222 254 302 269 258 255 240 205 216 230 221 214 194 186 160 181 200 192
321 318 314 312 307 304 296 289 284 283 292 296 200 144 147 97 162 277 200 171 178 186 191 201 209 216 213 235 257 257 262 274 271 233 251 216 233 237 211 205 199 179 196 228 233
317 313 301 297 299 295 290 277 276 279 284 296 253 177 175 145 112 36 167 181 182 192 198 204 213 213 221 222 236 269 278 300 281 254 244 221 219 199 197 187 219 212 191 204 218
315 311 304 296 288 290 294 281 267 267 262 278 262 214 181 180 161 39 124 188 188 197 201 207 213 222 205 224 249 277 292 300 285 185 189 232 225 231 226 212 228 214 202 210 219
312 308 302 295 288 271 269 265 267 282 296 290 275 230 215 210 189 115 54 184 195 201 205 215 226 216 214 222 243 279 299 242 183 151 136 264 263 244 236 221 253 221 219 217 217
306 302 297 292 279 265 254 260 281 300 307 317 271 241 214 222 193 124 104 144 186 203 206 214 130 207 224 228 256 273 273 236 240 205 183 227 250 242 239 237 242 228 221 222 220
301 295 290 285 275 260 256 259 276 313 302 316 280 188 215 211 217 173 160 219 178 161 186 228 194 200 221 249 263 283 287 257 240 222 229 224 256 260 230 239 241 224 223 210 212
306 301 287 277 266 250 253 259 274 289 332 40 130 158 200 184 167 158 178 228 137 200 207 189 184 264 287 250 289 276 260 256 238 224 259 246 246 278 280 245 251 214 219 220 207
313 313 287 272 255 251 236 222 235 258 256 167 192 196 188 174 149 156 182 218 235 246 246 241 249 267 262 273 264 277 246 212 225 227 266 272 224 289 287 290 273 242 224 219 213
307 316 296 278 250 235 214 208 196 225 264 54 238 228 225 193 192 210 218 215 219 227 253 248 255 252 256 263 261 265 230 210 193 169 217 227 213 283 303 299 288 270 235 226 215
307 310 303 289 249 213 200 195 218 244 176 190 280 226 227 219 214 229 238 244 226 234 265 242 239 224 227 234 237 249 243 214 205 187 230 211 251 279 307 294 279 248 252 217 218
314 309 309 288 235 205 197 194 214 201 208 302 74 214 236 234 232 238 240 242 240 229 225 231 261 213 228 257 241 235 237 243 224 210 192 237 262 282 297 288 214 225 238 218 216
325 311 302 157 187 208 211 218 219 215 261 286 309 183 360 224 272 251 243 263 255 251 250 256 263 247 261 319 207 231 240 216 210 139 225 261 267 269 291 243 221 241 48 217 214
324 236 178 128 130 216 234 246 252 257 291 286 235 261 276 301 263 252 239 246 266 264 258 248 251 260 272 260 254 221 229 226 228 224 180 216 260 289 289 242 240 226 148 154 201
283 214 218 234 158 190 246 235 218 205 251 277 265 258 265 276 280 269 252 240 246 287 267 271 241 248 263 254 262 253 233 231 227 221 222 219 268 269 319 222 236 216 204 160 157
270 232 218 221 230 231 259 254 288 275 273 304 270 270 272 267 276 272 240 244 250 256 234 256 229 239 251 260 249 231 243 241 238 243 224 177 256 250 268 263 195 211 214 216 206
242 234 239 228 244 254 262 269 267 249 269 243 275 276 265 250 247 251 243 255 267 255 257 257 242 245 231 240 234 222 240 235 236 230 207 230 264 239 234 279 212 208 220 227 236
269 233 242 232 241 252 265 269 272 271 259 274 258 268 280 294 267 257 261 260 262 266 268 263 249 248 246 247 235 226 233 229 208 225 216 207 191 213 254 237 256 211 220 228 241
298 267 249 249 249 251 253 261 266 266 273 273 279 267 276 286 280 278 268 276 264 249 252 256 256 251 239 234 230 234 225 208 238 235 252 224 234 262 234 221 236 212 222 228 241
312 296 282 273 269 266 265 266 267 269 259 264 272 273 269 264 257 269 274 272 264 270 256 262 245 245 232 225 219 219 217 229 253 254 272 251 265 271 251 210 234 224 234 231 232